Miscellaneous Local Product
Issued by NWS North Platte, NE

Home | Current Version | Previous Version | Text Only | Print | Product List | Glossary On
Versions: 1 2 3 4 5 6 7 8 9 10 11 12 13 14 15 16 17 18 19 20 21 22 23 24 25 26 27 28 29 30 31 32 33 34 35 36 37 38 39 40 41 42 43 44 45 46 47 48 49 50
000
AXUS43 KLBF 281110
MISLBF


WESTERN AND NORTH CENTRAL NEBRASKA HOURLY WEATHER ROUNDUP
NATIONAL WEATHER SERVICE NORTH PLATTE NE
600 AM CDT SUN MAY 28 2017

NOTE: "FAIR" INDICATES FEW OR NO CLOUDS BELOW 12,000 FEET WITH NO
SIGNIFICANT WEATHER AND/OR OBSTRUCTIONS TO VISIBILITY.

NOTE: STATIONS NOT REPORTING VARIABLES SUCH AS SKY/WEATHER OR
PRESSURE ARE PROVIDED BY RAWS AND APRS NETWORKS AND ARE NOT UNDER
NATIONAL WEATHER SERVICE QUALITY CONTROL.

...OBSERVATIONS IN AND NEAR THE EASTERN PANHANDLE OF NEBRASKA...

CITY           SKY/WX    TMP DP  RH WIND       PRES   REMARKS
PINE RIDGE     PTCLDY    50  43  77 W12       30.06S
GORDON         FAIR      48  40  75 W10       30.05S
CHADRON        PTCLDY    45  40  82 W7        30.08F
ALLIANCE       CLEAR     39  37  92 W10       30.10S WCI  32
SIDNEY         PTCLDY    43  38  82 W13       30.16R
CRESCENT LAKE    N/A     46  41  82 W5G15       N/A
$$

...OBSERVATIONS IN NORTHERN NEBRASKA AND FAR SOUTHERN SOUTH DAKOTA...

CITY           SKY/WX    TMP DP  RH WIND       PRES   REMARKS
WINNER         FAIR      53  45  74 W8        29.93R
VALENTINE      CLEAR     49  42  77 W8        29.98S
THEDFORD       CLEAR     48  44  87 W8        30.03R
AINSWORTH      CLEAR     51  45  78 W8        29.97S
O`NEILL        CLEAR     51  45  79 W9        29.93R
ORD            CLEAR     46  41  82 NW7       29.96R
BROKEN BOW     CLEAR     53  44  71 NW12      29.99R
VALENTINE NWR    N/A     50  43  77 NW6         N/A
HALSEY           N/A     51  44  76 W7          N/A
BUTTE            N/A     50  43  78 W5          N/A
CHAMBERS         N/A     50  45  81 CALM        N/A
EWING            N/A     49  46  88 W5          N/A
$$

...OBSERVATIONS IN SOUTHWEST NEBRASKA AND FAR NORTHEAST COLORADO...

CITY           SKY/WX    TMP DP  RH WIND       PRES   REMARKS
WRAY           FAIR      46  43  87 W13       30.14R
IMPERIAL       CLEAR     48  40  73 W13       30.09R
OGALLALA       CLEAR     46  42  85 W9        30.09R
NORTH PLATTE   CLEAR     42  41  96 NW6       30.05R
MCCOOK         CLEAR     47  45  93 W10       30.06R
LEXINGTON      PTCLDY    46  43  91 NW8       30.02S
STAPLETON        N/A     46  43  88 CALM        N/A
GOTHENBURG       N/A     48  41  78 W3          N/A
CALLAWAY         N/A     49  44  82 NW14        N/A
$$

...OBSERVATIONS IN CENTRAL LINCOLN COUNTY AREA...

CITY           SKY/WX    TMP DP  RH WIND       PRES   REMARKS
N.P. AIRPORT   CLEAR     42  41  96 NW6       30.05R
N.P. DOWNTOWN    N/A     47  43  86 CALM        N/A
N.P. SOUTHEAST   N/A     47  43  85 CALM        N/A
N.P. HILLCREST   N/A     44  42  92 W3          N/A
$$

...SOME OBSERVATIONS FROM AROUND THE REGION...

CITY           SKY/WX    TMP DP  RH WIND       PRES   REMARKS
DENVER         PTCLDY    42  36  79 SW9       30.25R
LIMON          CLEAR     39  37  92 NW7       30.23S WCI  34
ASPEN          CLOUDY    32  27  81 SW7       30.36S WCI  26
LARAMIE        CLEAR     28  25  88 SE9       30.30S WCI  19
CASPER         CLEAR     40  35  83 W7        30.24R
CHEYENNE       CLEAR     42  31  64 W12       30.25R
SCOTTSBLUFF    CLEAR     42  38  85 NW8       30.15S
GRAND ISLAND   CLEAR     52  49  89 W10       29.96S
OMAHA          PTCLDY    55  50  83 VRB3      29.88S
SIOUX FALLS    CLEAR     51  48  89 W6        29.84S
PIERRE         PTCLDY    55  44  66 NW15      29.88S
RAPID CITY     MOCLDY    52  38  58 W10       30.02S
BISMARCK       CLEAR     47  42  83 W7        29.90R
KANSAS CITY    CLEAR     58  57  97 NW7       29.88R
HILL CITY      CLEAR     53  49  86 NW12      30.04S
WICHITA        PTCLDY    61  55  81 N13       29.95R
DODGE CITY     CLEAR     49  47  93 NW8       30.07R
OKLAHOMA CITY  PTCLDY    65  61  87 N14       29.93R
DALLAS         CLOUDY    74  68  81 NE8       29.84R
AMARILLO       CLEAR     51  46  83 N13       30.15R
$$




USA.gov is the U.S. government's official web portal to all federal, state and local government web resources and services.